Total_Precipitation_Accumulation
0.00 0.01 0.01 0.02 0.02 0.03 0.07 0.09 0.18 0.24 0.18 0.20 0.36 0.55 0.69 0.81 1.05 1.18 1.20 1.15 1.18 1.46 1.88 2.10 2.40 2.89 3.66 4.40 5.08 5.18 5.36 4.84 4.18 3.60 3.16 3.06 2.88 2.58 2.50 2.39 2.23 2.07 1.86 1.74
0.02 0.04 0.03 0.02 0.03 0.05 0.09 0.12 0.20 0.22 0.15 0.18 0.36 0.63 0.83 0.92 0.91 0.99 1.02 1.07 1.18 1.54 1.97 2.34 2.88 3.26 3.27 3.79 4.49 4.54 4.21 3.95 3.48 3.06 2.85 2.68 2.61 2.32 2.16 2.03 2.01 1.84 1.69 1.65
0.04 0.05 0.03 0.03 0.05 0.10 0.12 0.14 0.18 0.17 0.16 0.23 0.42 0.79 1.09 1.05 0.80 0.72 0.78 0.86 1.01 1.35 1.86 2.29 2.70 3.12 3.08 3.44 3.55 3.17 2.97 3.01 2.92 2.72 2.59 2.48 2.43 2.24 1.97 1.78 1.76 1.66 1.47 1.43
0.03 0.03 0.03 0.04 0.06 0.07 0.08 0.08 0.07 0.07 0.14 0.29 0.43 0.97 1.38 1.18 0.90 0.75 0.78 0.96 1.02 1.13 1.33 1.61 1.95 2.36 2.55 2.63 2.55 2.49 2.44 2.43 2.59 2.58 2.34 2.15 1.85 1.71 1.64 1.53 1.57 1.59 1.41 1.33
0.03 0.03 0.03 0.04 0.05 0.05 0.05 0.04 0.05 0.08 0.13 0.27 0.48 0.82 1.23 1.21 1.18 1.02 0.89 0.95 0.90 0.93 0.99 1.14 1.25 1.46 1.74 1.99 2.04 2.00 2.23 2.32 2.32 2.29 2.23 2.21 1.94 1.74 1.65 1.74 1.93 1.82 1.55 1.29
0.05 0.05 0.04 0.03 0.04 0.04 0.04 0.05 0.12 0.25 0.37 0.70 0.69 0.74 1.09 1.06 1.02 1.02 0.87 0.73 0.69 0.71 0.75 0.93 0.98 1.04 1.17 1.32 1.42 1.52 1.76 1.97 2.03 1.98 1.98 2.01 1.97 1.87 1.65 1.60 1.64 1.57 1.43 1.26
0.14 0.12 0.09 0.05 0.05 0.05 0.05 0.09 0.32 0.69 1.01 1.18 0.73 0.71 0.93 0.81 0.82 0.90 0.71 0.49 0.44 0.52 0.55 0.66 0.73 0.81 0.91 0.94 1.01 1.15 1.35 1.51 1.64 1.70 1.73 1.79 1.95 1.85 1.62 1.43 1.43 1.38 1.23 1.12
0.15 0.18 0.10 0.05 0.05 0.06 0.06 0.07 0.19 0.34 0.50 0.71 0.75 1.11 1.05 0.68 0.63 0.55 0.40 0.30 0.28 0.43 0.47 0.45 0.50 0.56 0.70 0.76 0.82 0.93 1.00 1.10 1.23 1.45 1.65 1.61 1.70 1.55 1.42 1.52 1.42 1.27 1.08 1.07
0.07 0.06 0.05 0.05 0.05 0.07 0.05 0.05 0.06 0.10 0.16 0.44 0.83 1.19 0.99 0.58 0.54 0.41 0.28 0.23 0.27 0.34 0.45 0.40 0.39 0.43 0.46 0.52 0.59 0.68 0.85 1.01 1.07 1.18 1.41 1.49 1.44 1.40 1.46 1.56 1.49 1.36 1.25 1.13
0.04 0.02 0.04 0.05 0.05 0.07 0.06 0.06 0.06 0.07 0.15 0.34 0.70 1.06 1.13 0.87 0.64 0.43 0.33 0.33 0.41 0.39 0.47 0.51 0.38 0.37 0.40 0.40 0.48 0.59 0.74 0.95 1.14 1.15 1.14 1.17 1.36 1.42 1.51 1.52 1.36 1.31 1.25 1.21
0.04 0.02 0.03 0.04 0.06 0.08 0.08 0.08 0.09 0.10 0.12 0.22 0.53 0.78 0.70 0.69 0.52 0.42 0.43 0.51 0.40 0.38 0.44 0.47 0.35 0.30 0.35 0.38 0.45 0.58 0.70 0.96 1.15 1.07 1.09 1.18 1.34 1.41 1.41 1.51 1.47 1.37 1.29 1.26
0.05 0.03 0.04 0.08 0.11 0.10 0.10 0.10 0.11 0.14 0.16 0.17 0.28 0.49 0.43 0.50 0.48 0.56 0.61 0.57 0.48 0.47 0.46 0.49 0.43 0.45 0.47 0.50 0.55 0.66 0.74 0.88 0.99 1.03 1.12 1.18 1.28 1.32 1.27 1.30 1.37 1.41 1.32 1.25
0.06 0.05 0.07 0.21 0.31 0.22 0.14 0.10 0.11 0.13 0.13 0.16 0.31 0.50 0.44 0.48 0.50 0.55 0.59 0.54 0.61 0.64 0.58 0.55 0.58 0.62 0.57 0.57 0.68 0.77 0.83 0.86 0.96 1.13 1.14 1.11 1.16 1.11 1.11 1.15 1.20 1.28 1.31 1.33
0.07 0.06 0.08 0.22 0.33 0.35 0.26 0.17 0.16 0.13 0.14 0.17 0.24 0.44 0.44 0.56 0.70 0.62 0.67 0.62 0.57 0.58 0.56 0.50 0.53 0.54 0.57 0.61 0.67 0.76 0.83 0.88 0.97 0.99 1.00 1.01 1.02 1.04 1.11 1.16 1.17 1.19 1.19 1.27
0.09 0.07 0.05 0.09 0.17 0.20 0.21 0.20 0.18 0.13 0.12 0.17 0.22 0.35 0.50 0.60 0.73 0.66 0.65 0.71 0.73 0.60 0.53 0.43 0.39 0.49 0.61 0.67 0.68 0.73 0.81 0.89 1.02 1.03 0.99 0.99 1.01 1.03 1.05 1.07 1.07 1.09 1.15 1.18
0.15 0.11 0.10 0.11 0.14 0.14 0.16 0.18 0.15 0.11 0.09 0.10 0.18 0.36 0.52 0.66 0.68 0.64 0.55 0.53 0.67 0.61 0.53 0.50 0.48 0.56 0.61 0.62 0.62 0.60 0.63 0.75 0.92 0.98 1.03 1.05 1.05 0.99 1.03 1.04 1.02 1.06 1.16 1.27
0.28 0.22 0.21 0.21 0.17 0.18 0.25 0.20 0.17 0.14 0.12 0.13 0.23 0.37 0.53 0.67 0.59 0.63 0.59 0.50 0.50 0.48 0.47 0.54 0.57 0.61 0.60 0.59 0.55 0.55 0.55 0.67 0.94 1.02 1.00 1.08 1.16 1.08 1.14 1.17 1.16 1.19 1.26 1.36
0.38 0.39 0.31 0.28 0.31 0.38 0.29 0.23 0.22 0.24 0.25 0.23 0.27 0.38 0.60 0.77 0.66 0.60 0.59 0.57 0.53 0.43 0.45 0.53 0.54 0.54 0.56 0.56 0.56 0.54 0.55 0.63 0.85 1.01 1.05 1.22 1.36 1.27 1.28 1.29 1.32 1.38 1.45 1.49
0.39 0.47 0.47 0.42 0.44 0.46 0.38 0.34 0.36 0.44 0.53 0.45 0.46 0.58 0.64 0.60 0.58 0.61 0.56 0.51 0.50 0.50 0.54 0.53 0.56 0.58 0.63 0.68 0.66 0.63 0.72 0.84 0.97 1.08 1.19 1.38 1.53 1.59 1.57 1.53 1.62 1.67 1.70 1.75
0.35 0.45 0.55 0.57 0.64 0.72 0.65 0.52 0.48 0.60 0.95 0.77 0.62 0.64 0.64 0.61 0.74 0.75 0.56 0.51 0.50 0.53 0.59 0.63 0.70 0.70 0.70 0.77 0.77 0.79 0.89 1.07 1.20 1.23 1.26 1.34 1.51 1.61 1.65 1.65 1.81 1.95 2.00 2.00
0.53 0.54 0.57 0.64 0.74 0.73 0.65 0.58 0.62 1.06 1.39 0.98 0.84 0.86 0.90 0.87 0.81 0.70 0.61 0.61 0.58 0.53 0.55 0.58 0.62 0.69 0.73 0.79 0.86 0.97 1.05 1.16 1.19 1.19 1.22 1.29 1.51 1.77 1.81 1.87 1.94 2.05 2.13 2.18
0.71 0.71 0.69 0.75 0.97 1.07 0.70 0.63 0.96 1.28 1.19 1.21 1.17 1.16 1.10 0.96 0.77 0.65 0.61 0.64 0.59 0.57 0.61 0.61 0.60 0.66 0.73 0.85 1.00 1.09 1.11 1.15 1.21 1.22 1.26 1.37 1.60 1.70 1.80 1.95 2.00 2.15 2.27 2.28
0.80 0.89 0.87 0.96 1.16 1.06 0.84 0.91 0.95 1.01 1.13 1.19 1.12 1.12 1.09 1.04 0.91 0.78 0.71 0.68 0.67 0.66 0.66 0.72 0.71 0.72 0.77 0.89 1.09 1.22 1.22 1.22 1.21 1.18 1.21 1.31 1.45 1.54 1.67 1.75 1.74 1.83 1.96 1.98
0.92 0.82 1.02 1.34 1.33 1.14 0.98 0.92 0.92 0.88 0.94 0.95 0.90 0.86 0.85 0.86 0.83 0.75 0.71 0.74 0.77 0.81 0.77 0.77 0.76 0.78 0.81 0.86 1.04 1.17 1.17 1.18 1.18 1.14 1.10 1.19 1.35 1.43 1.50 1.62 1.64 1.73 1.80 1.86
1.12 1.08 1.28 1.64 1.61 1.40 1.26 1.10 1.08 0.95 0.92 0.90 0.85 0.81 0.75 0.66 0.66 0.65 0.59 0.56 0.59 0.65 0.68 0.68 0.69 0.74 0.75 0.80 0.98 1.13 1.15 1.16 1.20 1.16 1.11 1.17 1.28 1.37 1.45 1.56 1.65 1.67 1.70 1.68
1.04 1.21 1.48 1.69 1.56 1.47 1.46 1.16 1.10 1.15 1.03 0.89 0.86 0.79 0.72 0.63 0.57 0.56 0.55 0.51 0.51 0.56 0.63 0.66 0.70 0.70 0.66 0.72 0.84 0.95 1.12 1.26 1.31 1.23 1.15 1.13 1.14 1.21 1.28 1.36 1.37 1.30 1.27 1.26